When you browse on this site, cookies collect data to enhance your experience and personalize the content and advertising you see.
Visit our Privacy Policy to learn more. By continuing to use the site, you agree to this use of cookies and data.
  • En España
  • Lista de países
  • Para 7 días
  • Temperatura del agua
  • El tiempo en el mapa
  • Informadores
  • user-avatar
    Iniciar sesión

    Tiempo cada hora Sidi Bu-l-Abbas

    Hoy, 23 Enero, Jueves

    Tiempo Temperatura Precipitaciones Viento Presión Humedad
    00:00 +8°C° 0 mm 2 mps 720 mmHg 68%
    01:00 +8°C° 0 mm 2 mps 720 mmHg 67%
    02:00 +8°C° 0 mm 2 mps 720 mmHg 65%
    03:00 +8°C° 0 mm 3 mps 720 mmHg 64%
    04:00 +8°C° 0 mm 2 mps 720 mmHg 64%
    05:00 +7°C° 0 mm 2 mps 720 mmHg 64%
    06:00 +7°C° 0 mm 2 mps 720 mmHg 65%
    07:00 +8°C° 0 mm 2 mps 720 mmHg 62%
    08:00 +9°C° 0 mm 3 mps 721 mmHg 59%
    09:00 +10°C° 0 mm 3 mps 721 mmHg 56%
    10:00 +12°C° 0 mm 4 mps 721 mmHg 50%
    11:00 +14°C° 0 mm 4 mps 721 mmHg 43%
    12:00 +16°C° 0 mm 5 mps 722 mmHg 37%
    13:00 +17°C° 0 mm 4 mps 721 mmHg 36%
    14:00 +18°C° 0 mm 4 mps 721 mmHg 35%
    15:00 +18°C° 0 mm 4 mps 721 mmHg 33%
    16:00 +16°C° 0 mm 3 mps 720 mmHg 39%
    17:00 +15°C° 0 mm 2 mps 720 mmHg 44%
    18:00 +13°C° 0 mm 2 mps 720 mmHg 50%
    19:00 +13°C° 0 mm 2 mps 720 mmHg 50%
    20:00 +11°C° 0 mm 3 mps 721 mmHg 49%
    21:00 +11°C° 0 mm 3 mps 721 mmHg 49%
    22:00 +11°C° 0 mm 4 mps 721 mmHg 49%
    23:00 +10°C° 0 mm 4 mps 721 mmHg 48%

    Mañana, 24 Enero, Viernes

    Tiempo Temperatura Precipitaciones Viento Presión Humedad
    00:00 +10°C° 0 mm 4 mps 721 mmHg 48%
    01:00 +10°C° 0 mm 4 mps 721 mmHg 49%
    02:00 +8°C° 0 mm 4 mps 721 mmHg 50%
    03:00 +9°C° 0 mm 3 mps 721 mmHg 51%
    04:00 +9°C° 0 mm 3 mps 721 mmHg 52%
    05:00 +8°C° 0 mm 3 mps 721 mmHg 52%
    06:00 +8°C° 0 mm 3 mps 722 mmHg 53%
    07:00 +9°C° 0 mm 3 mps 722 mmHg 52%
    08:00 +10°C° 0 mm 3 mps 723 mmHg 50%
    09:00 +11°C° 0 mm 3 mps 723 mmHg 49%
    10:00 +13°C° 0 mm 3 mps 723 mmHg 44%
    11:00 +16°C° 0 mm 3 mps 723 mmHg 40%
    12:00 +18°C° 0 mm 3 mps 723 mmHg 35%
    13:00 +18°C° 0 mm 3 mps 723 mmHg 34%
    14:00 +18°C° 0 mm 3 mps 722 mmHg 33%
    15:00 +19°C° 0 mm 3 mps 722 mmHg 31%
    16:00 +17°C° 0 mm 3 mps 722 mmHg 36%
    17:00 +14°C° 0 mm 3 mps 721 mmHg 41%
    18:00 +13°C° 0 mm 3 mps 721 mmHg 46%
    19:00 +12°C° 0 mm 3 mps 721 mmHg 46%
    20:00 +12°C° 0 mm 4 mps 722 mmHg 47%
    21:00 +12°C° 0 mm 4 mps 722 mmHg 47%
    22:00 +11°C° 0 mm 4 mps 722 mmHg 48%
    23:00 +11°C° 0 mm 4 mps 722 mmHg 49%

    Pasado mañana, 25 Enero, Sábado

    Tiempo Temperatura Precipitaciones Viento Presión Humedad
    00:00 +11°C° 0 mm 4 mps 722 mmHg 50%
    01:00 +10°C° 0 mm 4 mps 721 mmHg 51%
    02:00 +10°C° 0 mm 4 mps 721 mmHg 53%
    03:00 +10°C° 0 mm 3 mps 721 mmHg 55%
    04:00 +9°C° 0 mm 3 mps 721 mmHg 55%
    05:00 +9°C° 0 mm 3 mps 721 mmHg 54%
    06:00 +9°C° 0 mm 3 mps 721 mmHg 54%
    07:00 +10°C° 0 mm 4 mps 721 mmHg 52%
    08:00 +11°C° 0 mm 4 mps 721 mmHg 50%
    09:00 +12°C° 0 mm 4 mps 722 mmHg 48%
    10:00 +13°C° 0 mm 5 mps 721 mmHg 46%
    11:00 +14°C° 0 mm 6 mps 721 mmHg 43%
    12:00 +15°C° 0 mm 6 mps 721 mmHg 41%
    13:00 +15°C° 0 mm 6 mps 721 mmHg 43%
    14:00 +15°C° 0 mm 5 mps 721 mmHg 45%
    15:00 +15°C° 0 mm 5 mps 721 mmHg 46%
    16:00 +14°C° 0 mm 3 mps 721 mmHg 56%
    17:00 +13°C° 0 mm 2 mps 721 mmHg 67%
    18:00 +12°C° 0 mm 1 mps 721 mmHg 77%
    19:00 +11°C° 0 mm 1 mps 722 mmHg 79%
    20:00 +11°C° 0 mm 1 mps 722 mmHg 80%
    21:00 +10°C° 0 mm 1 mps 722 mmHg 82%
    22:00 +10°C° 0 mm 1 mps 723 mmHg 78%
    23:00 +9°C° 0 mm 2 mps 723 mmHg 75%

    26 Enero, Domingo

    Tiempo Temperatura Precipitaciones Viento Presión Humedad
    00:00 +10°C° 0 mm 2 mps 723 mmHg 71%
    01:00 +9°C° 0 mm 2 mps 723 mmHg 72%
    02:00 +9°C° 0 mm 3 mps 722 mmHg 73%
    03:00 +8°C° 0 mm 3 mps 722 mmHg 74%
    04:00 +8°C° 0 mm 3 mps 723 mmHg 75%
    05:00 +8°C° 0 mm 3 mps 723 mmHg 77%
    06:00 +8°C° 0 mm 2 mps 723 mmHg 78%
    07:00 +9°C° 0 mm 2 mps 724 mmHg 75%
    08:00 +10°C° 0 mm 2 mps 724 mmHg 71%
    09:00 +12°C° 0 mm 2 mps 725 mmHg 68%
    10:00 +12°C° 0 mm 3 mps 725 mmHg 63%
    11:00 +13°C° 0 mm 4 mps 725 mmHg 59%
    12:00 +14°C° 0 mm 4 mps 725 mmHg 55%
    13:00 +14°C° 0 mm 4 mps 725 mmHg 55%
    14:00 +14°C° 0 mm 5 mps 725 mmHg 55%
    15:00 +14°C° 0 mm 5 mps 724 mmHg 56%
    16:00 +13°C° 0 mm 4 mps 724 mmHg 62%
    17:00 +11°C° 0 mm 3 mps 724 mmHg 69%
    18:00 +10°C° 0 mm 2 mps 724 mmHg 76%
    19:00 +9°C° 0 mm 2 mps 725 mmHg 78%
    20:00 +10°C° 0 mm 1 mps 725 mmHg 80%
    21:00 +9°C° 0 mm 1 mps 726 mmHg 82%
    22:00 +9°C° 0 mm 1 mps 726 mmHg 81%
    23:00 +9°C° 0 mm 1 mps 726 mmHg 80%

    27 Enero, Lunes

    Tiempo Temperatura Precipitaciones Viento Presión Humedad
    00:00 +9°C° 0 mm 1 mps 726 mmHg 78%
    01:00 +9°C° 0 mm 1 mps 726 mmHg 79%
    02:00 +8°C° 0 mm 1 mps 725 mmHg 79%
    03:00 +8°C° 0 mm 1 mps 725 mmHg 79%
    04:00 +8°C° 0 mm 1 mps 725 mmHg 79%
    05:00 +8°C° 0 mm 1 mps 725 mmHg 80%
    06:00 +8°C° 0 mm 1 mps 725 mmHg 80%
    07:00 +9°C° 0 mm 1 mps 726 mmHg 75%
    08:00 +10°C° 0 mm 1 mps 726 mmHg 69%
    09:00 +12°C° 0 mm 1 mps 727 mmHg 64%
    10:00 +13°C° 0 mm 1 mps 727 mmHg 59%
    11:00 +14°C° 0 mm 1 mps 727 mmHg 54%
    12:00 +15°C° 0 mm 1 mps 727 mmHg 50%
    13:00 +15°C° 0 mm 1 mps 726 mmHg 48%
    14:00 +15°C° 0 mm 1 mps 726 mmHg 46%
    15:00 +16°C° 0 mm 1 mps 725 mmHg 44%
    16:00 +14°C° 0 mm 1 mps 725 mmHg 51%
    17:00 +13°C° 0 mm 1 mps 725 mmHg 57%
    18:00 +12°C° 0 mm 1 mps 725 mmHg 63%
    19:00 +11°C° 0 mm 1 mps 725 mmHg 64%
    20:00 +11°C° 0 mm 1 mps 725 mmHg 64%
    21:00 +10°C° 0 mm 1 mps 725 mmHg 65%
    22:00 +10°C° 0 mm 1 mps 725 mmHg 64%
    23:00 +9°C° 0 mm 2 mps 725 mmHg 62%

    28 Enero, Martes

    Tiempo Temperatura Precipitaciones Viento Presión Humedad
    00:00 +9°C° 0 mm 2 mps 725 mmHg 61%
    01:00 +8°C° 0 mm 2 mps 725 mmHg 60%
    02:00 +8°C° 0 mm 2 mps 725 mmHg 59%
    03:00 +8°C° 0 mm 2 mps 725 mmHg 58%
    04:00 +8°C° 0 mm 2 mps 725 mmHg 58%
    05:00 +8°C° 0 mm 2 mps 725 mmHg 57%
    06:00 +7°C° 0 mm 2 mps 724 mmHg 57%
    07:00 +9°C° 0 mm 2 mps 725 mmHg 53%
    08:00 +10°C° 0 mm 2 mps 725 mmHg 50%
    09:00 +13°C° 0 mm 2 mps 725 mmHg 47%
    10:00 +14°C° 0 mm 1 mps 725 mmHg 42%
    11:00 +16°C° 0 mm 1 mps 725 mmHg 37%
    12:00 +18°C° 0 mm 1 mps 725 mmHg 33%
    13:00 +19°C° 0 mm 1 mps 725 mmHg 32%
    14:00 +19°C° 0 mm 1 mps 724 mmHg 31%
    15:00 +19°C° 0 mm 2 mps 724 mmHg 30%
    16:00 +18°C° 0 mm 1 mps 723 mmHg 39%
    17:00 +15°C° 0 mm 1 mps 723 mmHg 47%
    18:00 +13°C° 0 mm 1 mps 723 mmHg 55%
    19:00 +12°C° 0 mm 1 mps 723 mmHg 55%
    20:00 +12°C° 0 mm 1 mps 723 mmHg 55%
    21:00 +12°C° 0 mm 1 mps 723 mmHg 55%
    22:00 +11°C° 0 mm 1 mps 723 mmHg 53%
    23:00 +11°C° 0 mm 1 mps 723 mmHg 52%
    Mostrar más